FENGYUN 1C DEB

Satellite information

Favourite Embed

Satellite Type and Status

DEBRISIN ORBIT

Key statistics

Satellite FENGYUN 1C DEB at a glance.

Uptime

9556

Days in orbit

Revolutions

≈ 14.5

Per day

Orbit

SSO

Sun Synchronous Orbit

Inclination

97.7

Latest

Satellite identification and parameters

Extended collection of information and parameters for FENGYUN 1C DEB.

Object identification

Identified? True

Debris? True

Object name: FENGYUN 1C DEB

International designator: 1999-025CLM

Object number (NORAD): 31910

Object ID (CCSDS): 31910

Country: PEOPLES REPUBLIC OF CHINA (PRC)

Current information (Y/N): Y

RCS size: SMALL

Orbital parameters

Period: 99.586 minutes

Inclination: 97.6811 deg

SMA: 7116.906 km

Apoapsis: 903.129 km

Periapsis: 574.412 km

RAAN: 216.0652 deg

Eccentricy: 0.0230941

Argument of periapsis: 314.5822 deg

Mean anomaly: 43.6723 deg

Mean motion: 14.45992217 rev/day

Mean motion (dot): 0.00001828 rev/day2

B* drag term: 0.00037865 1/REarth

Two-line elements (TLE)

Creation date: June 28, 2025, 5:41 p.m.

Reference frame: TEME

Reference center: EARTH

Epoch: June 28, 2025, 8:53 a.m. UTC

TLE line 0: 0 FENGYUN 1C DEB

TLE line 1: 1 31910U 99025CLM 25179.37017106 .00001828 00000-0 37865-3 0 9999

TLE line 2: 2 31910 97.6811 216.0652 0230941 314.5822 43.6723 14.45992217619492

Live tracking on map

Real-time ground track for satellite FENGYUN 1C DEB.

In-orbit conjunctions

A list of the most updated potential collisions computed for object FENGYUN 1C DEB.

Target Orbit TCA Probability of collision Miss distance Type
IRIDIUM 33 DEB LEO 2024-11-10 13:09:15 0.0001292723 605.0 (m) DEBRIS

Associated space launch

Chinese polar orbiting meteorological satellite

FENGYUN 1C DEB was lifted into orbit during the mission ‘Long March 4B | Feng Yun 1C’, on board a Long March 4B space rocket.

The launch took place on May 10, 1999, 1:33 a.m. from Launch Complex 7.

For more information about the launch, click the button.

Launch to space Long March 4B | Feng Yun 1C
Long March 4B | Feng Yun 1C

Agency: N/A

Status: Launch Successful

Launch date: May 10, 1999, 1:33 a.m. UTC

Rocket: Long March 4B

Launch pad: Launch Complex 7

Location: Taiyuan Satellite Launch Center, People's Republic of China

...

Latest news about this satellite

There are no fresh news available about this satellite. Check back as we update our databases every day.


Newsletter sign-up

Weekly statistics, charts and insights to help you stay on top of the space industry.